Visalia, CA

4:14 AM PDT on October 14, 2019 (GMT -0700)
Visalia Municipal

Weather History for KVIS - August, 2019

Change the Weather History Date:

Friday, August 2, 2019

  Actual Average Record
Temperature  
Mean Temperature 78 °F -  
Max Temperature 93 °F 96 °F 109 °F (1946)
Min Temperature 62 °F 66 °F 37 °F (2010)
Cooling Degree Days 12    
Growing Degree Days 28 (Base 50)    
Moisture  
Dew Point 60 °F    
Average Humidity 56    
Maximum Humidity 84    
Minimum Humidity 30    
Precipitation  
Precipitation 0.00 in - - ()
Sea Level Pressure  
Sea Level Pressure 29.98 in    
Wind  
Wind Speed 7 mph (West)    
Max Wind Speed 10 mph    
Max Gust Speed -    
Visibility 10 miles    
Events      
Averages and records for this station are not official NWS values.
T = Trace of Precipitation, MM = Missing Value Source: NWS Daily Summary

Daily Weather History Graph

Daily Weather History Graph

Search for Another Location

Airport or City:

Astronomy

Aug. 02, 2019 Rise Set
Actual Time 6:04 AM PDT 8:02 PM PDT
Civil Twilight 5:36 AM PDT 8:30 PM PDT
Nautical Twilight 5:02 AM PDT 9:04 PM PDT
Astronomical Twilight 4:25 AM PDT 9:41 PM PDT
Moon 7:48 AM PDT (8/2) 9:37 PM PDT (8/2)
Length of Visible Light 14h 53m
Length of Day
13h 57m
Waxing Crescent, 4% of the Moon is Illuminated
Aug 2
Waxing Crescent
Aug 7
First Quarter
Aug 15
Full
Aug 23
Last Quarter
Aug 30
New

Hourly Weather History & Observations

Time (PDT) Temp. Heat Index Dew Point Humidity Pressure Visibility Wind Dir Wind Speed Gust Speed Precip Events Conditions
12:56 AM 73.0 °F - 57.9 °F 59% 29.96 in 10.0 mi NW 10.4 mph - N/A   Clear
1:56 AM 70.0 °F - 57.0 °F 63% 29.96 in 10.0 mi NW 8.1 mph - N/A   Clear
2:56 AM 66.9 °F - 57.0 °F 70% 29.97 in 10.0 mi NW 5.8 mph - N/A   Clear
3:56 AM 66.0 °F - 57.0 °F 73% 29.98 in 10.0 mi West 6.9 mph - N/A   Clear
4:56 AM 64.0 °F - 57.0 °F 78% 29.99 in 10.0 mi Calm Calm - N/A   Clear
5:56 AM 62.1 °F - 57.0 °F 84% 30.01 in 10.0 mi Calm Calm - N/A   Clear
6:56 AM 64.0 °F - 59.0 °F 84% 30.02 in 10.0 mi SSW 3.5 mph - N/A   Clear
7:56 AM 68.0 °F - 59.0 °F 73% 30.03 in 10.0 mi Calm Calm - N/A   Clear
8:56 AM 71.1 °F - 59.0 °F 66% 30.04 in 10.0 mi SSE 4.6 mph - N/A   Clear
9:56 AM 73.9 °F - 61.0 °F 64% 30.04 in 10.0 mi South 6.9 mph - N/A   Clear
10:56 AM 79.0 °F - 62.1 °F 56% 30.04 in 10.0 mi SSE 5.8 mph - N/A   Clear
11:56 AM 82.0 °F 83.0 °F 62.1 °F 51% 30.03 in 10.0 mi WSW 5.8 mph - N/A   Clear
12:56 PM 87.1 °F 88.3 °F 64.0 °F 46% 30.01 in 10.0 mi West 9.2 mph - N/A   Clear
1:56 PM 89.1 °F 90.0 °F 63.0 °F 42% 29.99 in 10.0 mi WSW 8.1 mph - N/A   Clear
2:56 PM 91.0 °F 91.9 °F 63.0 °F 39% 29.97 in 10.0 mi West 8.1 mph - N/A   Clear
3:56 PM 93.0 °F 93.8 °F 62.1 °F 36% 29.95 in 10.0 mi WNW 10.4 mph - N/A   Clear
4:56 PM 93.9 °F 93.2 °F 59.0 °F 31% 29.93 in 10.0 mi WNW 10.4 mph - N/A   Clear
5:56 PM 93.0 °F 91.7 °F 57.0 °F 30% 29.92 in 10.0 mi WNW 10.4 mph - N/A   Clear
6:56 PM 90.0 °F 88.6 °F 57.0 °F 33% 29.91 in 10.0 mi WNW 10.4 mph - N/A   Clear
7:56 PM 86.0 °F 85.0 °F 57.9 °F 38% 29.91 in 10.0 mi WNW 5.8 mph - N/A   Clear
8:56 PM 81.0 °F 81.3 °F 59.0 °F 47% 29.92 in 10.0 mi WNW 4.6 mph - N/A   Clear
9:56 PM 79.0 °F - 60.1 °F 52% 29.94 in 10.0 mi NW 6.9 mph - N/A   Clear
10:56 PM 78.1 °F - 61.0 °F 56% 29.94 in 10.0 mi NW 6.9 mph - N/A   Clear
11:56 PM 75.9 °F - 62.1 °F 62% 29.95 in 10.0 mi NW 6.9 mph - N/A   Clear